GSAT0217 (GALILEO 21) (43057 NORAD) Tracking and Keplerian Element Data

This shows tracking and keplerian element data for the satellite.

Feedback or suggestion? Click here.




ElementValue
Catalog43057
NameGSAT0217 (GALILEO 21)
Epoch Orbit4254
Epoch Day286.54886914
Epoch Year2024
RAAN238.3656
Inclination55.2924
Eccentricity0.0003699
Argument of Perigee300.3563
Mean Anonmoly59.5837
Mean Motion1.70473799
Decay Rate1.2E-07
L11 43057U 17079C 24286.54886914 .00000012 00000+0 00000+0 0 9991
L22 43057 55.2924 238.3656 0003699 300.3563 59.5837 1.70473799 42547



Live tracking and technical data element details for GSAT0217 (GALILEO 21) (NORAD 43057). GSAT0217 (GALILEO 21) can be tracked NOW for your location showing map with azimuth and elevation plus other details from your city location.







IsCatalogInMostPopularTable: catalog: 43057, numindb: 771
Update: records affected: 1



GetName: 43057 GSAT0217 (GALILEO 21)

Hit Count: updated at: Wed, 04 Dec 2024 20:41:04 GMT